Tracking 17921 objects as of 16-January-2017
HD Live streaming from Space Station
objects crossing your sky now

SDS-4

Track SDS-4 now!
10-day predictions
SDS-4 is classified as:


NORAD ID: 38339
Int'l Code: 2012-025C
Perigee: 661.2 km
Apogee: 673.2 km
Inclination: 98.4 °
Period: 97.9 minutes
Semi major axis: 7038 km
RCS: 0.47 m2 (medium)
Launch date: May 17, 2012
Source: Japan (JPN)
Launch site: TANEGASHIMA SPACE CENTER (TNSTA)
Your satellite tracking list
Your tracking list is empty





NASA's NSSDC Master Catalog

Two Line Element Set (TLE):
1 38339U 12025C   17015.92303196 +.00000047 +00000-0 +16570-4 0  9997
2 38339 098.3850 005.0189 0008546 044.7538 315.4355 14.70324350250145
Source of the keplerian elements: AFSPC